Location: Battersea Observatory
(44.4318°N, 76.3841°W)
Time: 21:31:14
(UTC-04:00)

Tiros 1 despin weight - Pass Details

Date: 30 January 2022
Orbit: 592 x 639 km, 48.2° (Epoch: 25 May)

Event Time Altitude Azimuth Distance (km) Brightness Sun altitude
Rises 14:05:59 0° 210° (SSW) 2,831 ? 23.4°
Reaches altitude 10° 14:08:31 10° 198° (SSW) 1,940 ? 23.2°
Maximum altitude 14:12:16 27° 141° (SE) 1,174 ? 22.9°
Drops below altitude 10° 14:16:05 10° 83° (E) 1,975 ? 22.5°
Sets 14:18:40 0° 71° (ENE) 2,893 ? 22.3°
